Tracking 29892 objects as of 21-Nov-2024
HD Live streaming from Space Station
objects crossing your sky now

STARLINK-3876

Track STARLINK-3876 now!
10-day predictions
STARLINK-3876 is classified as:


NORAD ID: 52354
Int'l Code: 2022-045Z
Perigee: 545.9 km
Apogee: 547.8 km
Inclination: 53.2 °
Period: 95.4 minutes
Semi major axis: 6917 km
RCS: Unknown
Launch date: April 29, 2022
Source: United States (US)
Launch site: AIR FORCE EASTERN TEST RANGE (AFETR)
Your satellite tracking list
Your tracking list is empty




NASA's NSSDC Master Catalog

Two Line Element Set (TLE):
1 52354U 22045Z   24324.99785424  .00000681  00000-0  60850-4 0  9993
2 52354  53.2157 170.0910 0001390  87.0969 273.0182 15.08852773144125
Source of the keplerian elements: AFSPC